Starlink 2682

operational
NORAD ID: 48440 Int'l Des: 2021-040 Owner: SPXS Country: US Constellation: starlink
LEOCIRCULARSTARLINK_TYPE

About Starlink 2682

Description loading...

Live Position

Loading 3D Globe...

Upcoming Passes

Altitude History

Altitude vs Time

uPlot chart will show altitude changes over time

Two-Line Element Set

1 48440U 21040N 25299.06357074 .00001135 00000-0 95113-4 0 9999
2 48440 53.0555 65.9756 0001330 81.0046 279.1093 15.06397838246338
Epoch: Oct 26, 2025 • Age: 20 hours

Current Status

Altitude 548.9 km
Velocity 7.59 km/s
Sub-Earth Point -3.88°S, 112.1°W
Launch Date May 9, 2021
Age 4.4 years
Type internet

Technical Details

Classification Payload
Mass 260.00 kg
Dry Mass 248.00 kg
Total Mass 260.00 kg
Length 0.20 m
Diameter 2.80 m
Span 9.00 m
Shape Box + pan
Manufacturer SPXS
Bus Type Starlink
Phase Status In Orbit
Owner/State SPXS/US

Large Constellations

Loading constellations...